Location: Limerick
(52.6800°N, 8.6400°W)
Time: 15:04:02
(UTC+00:00)

Daily predictions for brighter satellites

Satellite Brightness Start Highest point End
(mag) Time Altitude Azimuth Time Altitude Azimuth Time Altitude Azimuth
Cosmos 614 Rocket 4.2 16:58:42 10° SSW 17:03:57 77° WNW 17:09:13 10° NNE
ATLAS CENTAUR R/B 3.2 17:02:38 10° NW 17:04:55 15° NNW 17:07:13 10° NNE
Aureole 3 3.9 17:00:55 10° N 17:05:19 69° ENE 17:10:56 10° SSE
COSMOS 2406 3.8 16:59:57 10° NW 17:05:40 66° WSW 17:11:19 10° SSE
Cosmos 1455 4.0 17:02:36 10° SW 17:05:59 31° WNW 17:09:24 10° N
IDEFIX/ARIANE 42P 2.9 17:04:46 10° S 17:09:58 73° WSW 17:15:12 10° NNW
SMAP 3.5 17:05:46 10° SE 17:10:07 41° ENE 17:14:29 10° N
MSX 3.9 17:06:03 10° SSE 17:11:50 85° ENE 17:17:39 10° NNW
ERS-2 3.6 17:09:22 10° ESE 17:11:56 18° ENE 17:14:31 10° NNE
Tsikada Rocket 4.0 17:06:43 10° N 17:12:54 66° ENE 17:19:01 10° SSE
Cosmos 1437 3.8 17:12:20 10° SSE 17:15:01 25° E 17:17:42 10° NE
SJ-12 3.9 17:12:30 10° SSE 17:16:38 73° ENE 17:20:48 10° N
DNEPR-1 R/B 3.5 17:12:36 10° SW 17:16:54 81° SE 17:21:11 10° NE
Cosmos 1140 Rocket 4.1 17:12:08 10° SW 17:17:17 58° WNW 17:22:25 10° NNE
Cosmos 2061 Rocket 4.1 17:12:07 10° S 17:18:26 86° E 17:24:53 10° N
Cosmos 2016 Rocket 4.0 17:12:12 10° S 17:18:28 73° E 17:24:43 10° NNE
CSL-04 Debris 4.2 17:14:21 10° SE 17:19:40 59° ENE 17:24:59 10° N
Cosmos 1833 Rocket 3.0 17:14:52 10° NNW 17:20:18 45° NE 17:25:42 10° ESE
Meteor 1-14 Rocket 4.3 17:18:13 10° N 17:23:51 55° ENE 17:29:19 10° SSE
COSMO-SKYMED 1 4.4 17:22:01 10° ENE 17:23:57 13° E 17:25:54 10° ESE
Cosmos 972 Rocket 4.1 17:20:23 10° NNW 17:25:22 75° WSW 17:30:15 10° SSE
SPOT 3 Rocket 4.5 17:21:12 10° ESE 17:25:29 27° ENE 17:29:46 10° N
Cosmos 1633 3.7 17:22:29 10° NNE 17:25:31 24° ENE 17:28:34 10° SE
YAOGAN 1 3.2 17:26:24 10° SE 17:30:19 35° ENE 17:34:16 10° N
ATLAS 3B R/B 3.5 17:25:04 10° W 17:31:56 46° NNW 17:38:30 10° NE
Cosmos 1844 3.9 17:26:19 10° SSW 17:32:00 62° ESE 17:37:45 10° NE
Cosmos 2263 Rocket 3.4 17:28:54 10° WSW 17:34:05 36° NW 17:39:17 10° NNE
Cosmos 2227 Rocket 4.3 17:31:58 10° NW 17:34:27 13° N 17:36:57 10° NNE
Cosmos 2278 Rocket 2.9 17:31:14 10° S 17:36:21 36° ESE 17:41:30 10° NE
BREEZE-M R/B 4.2 17:34:32 10° WSW 17:36:35 23° SSW 17:39:10 10° SE
Cosmos 1707 Rocket 4.3 17:34:37 10° SSW 17:39:01 56° WNW 17:43:24 10° N
USA 238 DEB 4.4 17:32:29 10° W 17:39:10 46° NNW 17:45:43 11° NE
USA 238 4.4 17:32:35 10° W 17:39:16 46° NNW 17:45:49 11° NE
Cosmos 2173 Rocket 4.5 17:33:24 10° SSW 17:39:27 64° WNW 17:45:38 10° N
CORIOLIS 4.2 17:34:09 10° SSE 17:39:32 66° ENE 17:44:57 10° NNW
Cosmos 972 4.4 17:39:20 10° NNW 17:44:30 88° ENE 17:49:23 10° SSE
Meteor 1-26 Rocket 4.3 17:39:45 10° S 17:45:10 56° E 17:50:34 10° NNE
IRS-1A Rocket 4.3 17:39:34 10° SSE 17:45:15 63° ENE 17:50:52 10° NNW
Cosmos 1763 Rocket 3.9 17:41:05 10° NNW 17:46:18 70° WSW 17:51:25 10° SSE
CZ-2C R/B 3.7 17:41:56 10° S 17:46:49 48° W 17:51:49 10° NNW
Cosmos 1703 Rocket 4.3 17:47:15 10° SSE 17:51:13 32° E 17:55:11 10° NNE
BREEZE-M DEB (TANK) 4.0 17:49:43 10° SSW 17:51:44 25° SSE 17:53:28 16° ESE
Cosmos 44 Rocket 3.2 17:50:38 10° NW 17:55:27 67° NE 18:00:22 10° SE
CZ-2C R/B 4.1 17:53:15 10° NNE 17:57:29 40° E 18:01:45 10° SSE
COSMOS 2455 2.9 17:53:36 10° SSW 17:59:35 71° ESE 18:04:50 14° NE
USA 161 2.9 17:59:32 10° NNW 18:01:09 23° WNW 18:02:50 10° SW
Okean 2 Rocket 3.6 17:56:56 10° N 18:01:11 37° ENE 18:05:24 10° SE
Meteor 2-10 Rocket 4.3 17:57:22 10° SSW 18:02:35 56° WNW 18:08:04 10° N
Timation 1 Rocket 4.4 17:57:17 10° SSW 18:03:14 66° ESE 18:08:38 13° NE
Cosmos 292 Rocket 3.9 17:58:46 10° NNW 18:03:26 50° ENE 18:08:03 10° SE
Meteor 1-28 Rocket 3.3 18:02:14 11° NNE 18:05:47 50° E 18:09:24 10° S
Cosmos 2297 Rocket 4.3 18:03:54 10° NNW 18:06:05 12° N 18:08:16 10° NNE
Cosmos 2233 Rocket 3.9 17:59:51 10° S 18:06:05 76° E 18:12:17 10° NNE
MOS 1 4.3 18:01:09 10° SE 18:06:46 62° ENE 18:12:24 10° NNW
Lacrosse 5 2.2 18:02:39 10° W 18:07:40 59° NNW 18:10:51 22° ENE
Cosmos 1908 Rocket 3.6 18:05:54 10° NNW 18:10:16 81° W 18:14:36 10° S
Cosmos 2082 Rocket 2.2 18:04:32 10° NNW 18:10:17 87° ENE 18:15:58 10° SSE
Cosmos 540 Rocket 3.4 18:05:20 10° NNW 18:10:34 83° ENE 18:15:45 10° SSE
CSL-04 Rocket 4.4 18:06:26 10° S 18:11:38 55° WSW 18:16:56 10° NNW
SKYMED 2 4.2 18:10:14 20° NE 18:12:31 33° E 18:16:28 10° SSE
METEOR-M 4.0 18:08:34 10° SSE 18:13:53 73° ENE 18:19:14 10° NNW
NOSS 3-2 (C) 4.2 18:09:16 10° WSW 18:15:24 51° NNW 18:20:52 16° NE
Meteor 1-20 Rocket 4.3 18:11:22 10° NNW 18:16:58 80° W 18:22:28 10° S
Landsat 4 3.9 18:15:43 22° NE 18:17:55 47° E 18:21:35 10° S
Cosmos 1606 2.9 18:14:26 10° SSE 18:18:03 46° E 18:20:01 23° NNE
Cosmos 405 3.4 18:16:04 10° N 18:19:30 41° ENE 18:21:56 17° SE
Cosmos 44 3.3 18:15:49 10° NW 18:20:26 81° SW 18:25:18 10° SE
BREEZE-M DEB (TANK) 2.4 18:20:13 10° WSW 18:22:18 44° S 18:23:49 25° ESE
Ariane Rocket 4.1 18:17:52 10° S 18:22:47 48° W 18:27:43 10° NNW
EO 1 Del DPAF 3.8 18:22:29 34° E 18:22:54 35° E 18:26:26 10° SSE
CZ-4 R/B 2.0 18:20:02 10° S 18:23:49 56° WSW 18:27:37 10° NNW
NOSS 3-2 (A) 4.4 18:17:46 10° W 18:23:49 43° NNW 18:28:49 18° NE
Cosmos 1484 Rocket 4.2 18:20:27 10° S 18:24:09 42° W 18:27:57 10° NNW
Intercosmos 25 4.2 18:19:44 10° S 18:26:42 62° E 18:30:42 12° NNE
SL-27 R/B 3.9 18:24:15 10° NW 18:27:22 37° WSW 18:30:29 10° S
MTI 3.9 18:28:13 49° E 18:28:16 49° E 18:31:24 10° S
Cosmos 1862 Rocket 4.4 18:24:49 10° SSW 18:29:09 51° WNW 18:33:33 10° N
Sich 1 Rocket 4.1 18:26:33 10° NNW 18:30:56 62° W 18:35:19 10° S
COSMOS 2487 2.7 18:29:51 10° NNW 18:32:59 45° NE 18:32:59 45° NE
CZ-4C R/B 2.8 18:27:37 10° NW 18:34:28 83° NE 18:42:09 11° SE
CENTAUR R/B 2.9 18:28:54 10° WSW 18:35:16 69° NW 18:40:24 21° NE
Cosmos 1602 3.5 18:35:27 10° N 18:39:18 70° ENE 18:43:08 10° SSE
FengYun 1-2 T 4.4 18:34:12 10° SE 18:39:28 48° ENE 18:44:50 10° N
ALOS 2.1 18:35:03 10° SSE 18:39:43 75° ENE 18:44:25 10° NNW
Resurs 01 Rocket 4.0 18:43:33 10° NNE 18:43:33 10° NNE 18:43:33 10° NNE
Okean 1-7 2.9 18:36:11 10° S 18:40:32 67° E 18:43:22 21° NNE
MONITOR-E 4.2 18:37:59 10° S 18:41:01 74° WSW 18:44:05 10° NNW
Cosmos 1844 Rocket 3.7 18:35:41 10° WSW 18:41:02 43° NW 18:45:50 13° NNE
Cosmos 1486 Rocket 3.9 18:36:04 10° SSW 18:41:18 89° WNW 18:45:08 19° NNE
ATLAS CENTAUR R/B 3.3 18:43:04 10° NNW 18:44:51 15° N 18:44:51 15° N
ERS-2 2.9 18:41:41 10° S 18:45:17 53° WSW 18:48:56 10° NNW
Meteor 1-5 Rocket 4.2 18:40:44 10° N 18:45:57 48° ENE 18:48:10 30° SE
Cosmos 1891 Rocket 4.4 18:42:54 10° S 18:48:55 63° E 18:54:54 10° NNE
Cosmos 1782 2.8 18:46:05 10° SSW 18:50:07 83° W 18:52:28 24° N
Meteor 1-27 Rocket 4.0 18:45:20 10° SSE 18:51:00 49° E 18:54:22 24° NNE
Cosmos 405 Rocket 3.9 18:48:50 10° S 18:50:48 28° SSE 18:50:48 28° SSE
Cosmos 1782 Rocket 4.4 18:50:40 10° NNW 18:54:53 50° W 18:59:05 10° S
FENGYUN 3A 3.6 18:50:32 10° SSE 18:55:57 85° WSW 19:01:25 10° NNW
USA 116 4.4 18:52:09 10° N 18:56:47 61° WNW 19:00:51 10° SSW
Nadezhda 4 Rocket 3.8 18:52:12 10° N 18:58:22 72° ENE 19:04:27 10° SSE
Cosmos 1354 Rocket 3.9 18:54:02 10° SSW 18:59:17 72° ESE 19:01:06 41° NE
Cosmos 1633 4.4 18:57:13 10° NNW 19:00:33 33° W 19:03:51 10° SSW
Meteor 1-10 Rocket 4.2 18:54:51 10° S 19:00:34 85° E 19:06:27 10° NNE
COSMO-SKYMED 1 2.5 18:58:53 33° NNE 19:00:48 89° ESE 19:05:08 10° SSW
Cosmos 1072 Rocket 4.5 18:57:47 10° S 19:04:04 86° W 19:10:29 10° N
Cosmos 1833 Rocket 3.9 18:58:59 10° NW 19:04:13 41° WSW 19:09:28 10° S
SPOT 3 Rocket 4.0 18:59:21 10° S 19:04:31 63° WSW 19:09:43 10° NNW
YAOGAN 1 4.3 19:02:32 10° SSW 19:06:27 33° W 19:10:23 10° NNW
Timation 2 Rocket 4.2 19:03:25 10° NW 19:10:18 82° WSW 19:15:53 15° SSE
Cosmos 2034 Rocket 3.9 19:04:34 10° S 19:10:56 77° E 19:17:17 10° NNE
Meteor 2-20 4.5 19:04:58 10° NNW 19:11:06 79° W 19:17:09 10° S
Cosmos 1538 Rocket 3.9 19:08:11 10° NNW 19:13:31 69° ENE 19:13:57 65° E
Cosmos 1092 Rocket 3.8 19:10:03 10° N 19:16:12 70° ENE 19:20:30 21° SSE
Cosmos 2297 3.6 19:10:43 10° SSW 19:16:27 81° ESE 19:17:54 52° NE
Cosmos 2263 Rocket 4.4 19:16:39 10° NW 19:19:45 15° NNW 19:22:26 11° N
Cosmos 2278 Rocket 2.9 19:14:46 10° SW 19:20:18 52° NW 19:23:22 26° NNE
Cosmos 2227 Rocket 4.2 19:18:05 10° NNW 19:20:42 14° NNE 19:20:42 14° NNE
Cosmos 2285 Rocket 4.1 19:17:18 10° NNW 19:23:12 52° NE 19:23:12 52° NE
ATLAS 3B R/B 3.7 19:17:58 10° WNW 19:24:12 33° N 19:25:50 29° NNE
Meteor 1-11 Rocket 4.2 19:18:49 10° NNW 19:24:39 64° W 19:30:20 10° S
Cosmos 2151 Rocket 3.8 19:21:51 10° NNW 19:26:15 68° W 19:26:52 58° SW
Cosmos 2221 Rocket 4.4 19:23:23 10° SSW 19:27:40 50° WNW 19:29:40 28° NNW
USA 234 3.5 19:36:35 49° SE 19:36:35 49° SE 19:42:41 10° SW
COSMOS 2455 4.0 19:40:25 10° W 19:45:59 37° NNW 19:47:59 30° N
Cosmos 2195 Rocket 4.4 19:43:53 10° N 19:49:50 79° NNE 19:49:50 79° NNE
Lacrosse 5 2.7 19:46:12 10° WNW 19:50:03 45° NW 19:50:03 45° NW
Cosmos 2297 Rocket 4.3 19:49:09 10° NNW 19:51:02 15° N 19:51:02 15° N
Cosmos 2026 Rocket 4.2 19:51:01 10° N 19:56:12 62° N 19:56:12 62° N
CZ-4C R/B 4.2 20:16:31 10° WNW 20:22:45 33° WSW 20:27:27 18° SSW
CENTAUR R/B 3.7 20:20:52 10° WNW 20:27:10 38° N 20:27:35 38° N
Cosmos 2278 Rocket 4.5 21:01:54 10° WNW 21:05:14 18° NNW 21:05:14 18° NNW
ATLAS 3B R/B 4.3 21:09:49 10° NW 21:13:05 27° NNW 21:13:05 27° NNW
